Location: Ladrillo (historical)
(32.8195°N, 117.2231°W)
Time: 00:13:21
(UTC+00:00)

Altair - Pass Details

Date: 01 March 2021
Orbit: 1501 x 1683 km, 47.2° (Epoch: 16 April)

Event Time Altitude Azimuth Distance (km) Brightness Sun altitude
Rises 01:51:06 0° 219° (SW) 4,620 10.8 -2.0°
Reaches altitude 10° 01:54:08 10° 217° (SW) 3,641 10.2 -2.6°
Maximum altitude 02:03:09 68° 137° (SE) 1,613 7.5 -4.5°
Drops below altitude 10° 02:12:24 10° 57° (ENE) 3,726 9.0 -6.4°
Enters shadow 02:15:06 - 55° (NE) 4,597 9.5 -7.0°
